Regional Weather Roundup
Issued by NWS Austin/San Antonio, TX

Current Version | Previous Version | Text Only | Print | Product List | Glossary On
Versions: 1 2 3 4 5 6 7 8 9 10 11 12 13 14 15 16 17 18 19 20 21 22 23 24 25 26 27 28 29 30 31 32 33 34 35 36 37 38 39 40 41 42 43 44 45 46 47 48 49 50
000
ASUS44 KEWX 231310
RWREWX
SOUTH TEXAS REGIONAL WEATHER ROUNDUP
NATIONAL WEATHER SERVICE AUSTIN/SAN ANTONIO TX
800 AM CDT FRI OCT 23 2020

NOTE: "FAIR" INDICATED FEW OR NO CLOUDS BELOW 12,000 FEET WITH NO
SIGNIFICANT WEATHER AND/OR OBSTRUCTIONS TO VISIBILITY.

* - THESE STATIONS ARE NOT NWS OR FAA STATIONS...AND ARE NOT SUBJECT
    TO NWS AND FAA QUALITY CONTROL.

TXZ171-172-183>190-231400-
TEXAS HILL COUNTRY AND EDWARDS PLATEAU

CITY           SKY/WX    TMP DP  RH WIND       PRES   REMARKS
JUNCTION       CLOUDY    74  68  81 SW7       29.96R
*LLANO         CLOUDY    73  68  83 SE5       29.93R
BURNET         CLOUDY    73  68  84 SE3       29.97R
*HORSESHOE BAY CLOUDY    73  68  83 SE3       29.94S
*LAGO VISTA    CLOUDY    72  70  94 SE3       29.96R
*KERRVILLE     CLOUDY    72  67  87 S6        29.95S
*FREDERICKSBRG CLOUDY    72  66  82 SW6       29.96R
*ROCKSPRINGS   CLOUDY    68  68 100 S13       30.02R
*BOERNE        CLOUDY    70  70 100 SW7       29.96R
*CASTROVILLE   CLOUDY    76  73  88 S5        29.95R
HONDO          CLOUDY    74  69  85 S7        29.93S
*UVALDE        CLOUDY    74  71  89 S6        29.95R
DEL RIO        PTCLDY    75  71  87 E8        29.92R
*LAUGHLIN AFB  CLOUDY    72  71  95 SE8       29.93R FOG
*SPOFFORD      CLOUDY   N/A N/A N/A SE7       29.88R
*EAGLE PASS    NOT AVBL
CARRIZO SPRGS  CLOUDY    75  70  83 S9        29.91R
*FAITH RANCH   CLOUDY    75  70  83 S7G13     29.93R
$$

TXZ173-191>194-202-209-217>225-228-231400-
CENTRAL AND SOUTH CENTRAL TEXAS

CITY           SKY/WX    TMP DP  RH WIND       PRES   REMARKS
GEORGETOWN     CLOUDY    73  72  94 SE3       29.97R
*TAYLOR        CLOUDY    73  72  95 SE7       29.94S
AUSTIN/BERGSTM CLOUDY    75  73  93 CALM      29.93R
AUSTIN/MABRY   CLOUDY    76  70  82 E3        29.95R
*PFLUGERVILLE  CLOUDY    73  72  94 CALM      29.95R FOG
SAN MARCOS     CLOUDY    74  73  97 SE6       29.94R
NEW BRAUNFELS  CLOUDY    76  72  87 S7        29.91R
*RANDOLPH AFB  CLOUDY    75  72  88 S5        29.92R
*SEGUIN        CLOUDY    73  71  96 SE5       29.96R
SAN ANTONIO    CLOUDY    76  71  85 S9        29.93R
STINSON FIELD  CLOUDY    74  71  91 S5        29.91R
*KELLY FIELD   MOCLDY    75  71  88 S7        29.91R
*PLEASANTON    CLOUDY    75  73  92 CALM      29.93R
*KENEDY        MOCLDY    74  73  95 MISG      29.92S
*LA GRANGE     CLOUDY    75  75 100 SE3       29.92R FOG
*GIDDINGS      CLOUDY    74  73  94 CALM      29.95R
*GONZALES      CLOUDY    75  75 100 E3        29.92R
$$

TXZ163>164-176>182-195>201-210>213-226-227-235-231400-
SOUTHEAST TEXAS

CITY           SKY/WX    TMP DP  RH WIND       PRES   REMARKS
COLLEGE STN    CLOUDY    74  73  97 CALM      29.95R
*BRYAN         CLOUDY    72  72 100 CALM      29.97R FOG
*CALDWELL      CLOUDY    73 N/A N/A CALM      29.96R
*CROCKETT      NOT AVBL
*BRENHAM       CLOUDY    75  75  99 CALM      29.95R FOG
HUNTSVILLE     CLOUDY    74  71  91 CALM      29.96R FOG
CONROE         CLOUDY    75  74  96 E3        29.96R
HOUSTON BUSH   MOCLDY    74  73  97 NE3       29.93S FOG
HOUSTON HOBBY  PTCLDY    75  72  90 E3        29.93R
*HOUSTON SW AP FOG       71  71  99 CALM      29.94R VSB 3/4
PEARLAND       PTCLDY    74  70  87 CALM      29.94R
HOUSTON HOOKS  FOG       73  72  96 CALM      29.94R VSB 1
ELLINGTON FLD  NOT AVBL
SUGAR LAND     CLOUDY    76  74  93 E3        29.93R
*HOUSTON EXEC  MOCLDY    73  73 100 CALM      29.95R FOG
*CLEVELAND MUN CLOUDY    74  74  99 CALM      29.96R FOG
*WHARTON       FOG       72  71  97 CALM      29.93R VSB<1/4
*COLUMBUS      NOT AVBL
*EAGLE LAKE    FOG       73  72  98 E3        29.93R VSB<1/4
$$

TXZ214>216-236>238-231400-
THE UPPER TEXAS COAST

CITY           SKY/WX    TMP DP  RH WIND       PRES   REMARKS
*ORANGE        CLOUDY    76  74  93 E3        29.98R FOG
PORT ARTHUR    TSTM      72  72 100 E9        29.94S
GALVESTON      PTCLDY    78  74  87 E5        29.93R
ANGLETON       FOG       72  70  93 CALM      29.92R VSB 1/4
*BAY CITY      FOG       71  71  99 CALM      29.92R VSB 1/4
PALACIOS       PTCLDY    73  73 100 NE5       29.91R FOG
$$

TXZ229>234-239>247-231400-
TEXAS COASTAL BEND AND RIO GRANDE PLAINS

CITY           SKY/WX    TMP DP  RH WIND       PRES   REMARKS
VICTORIA       FOG       73  72  96 NE3       29.91R VSB<1/4
*BEEVILLE      NOT AVBL
ROCKPORT       MOCLDY    77  76  96 S3        29.89R
*PORT ARANSAS  PTCLDY    78  75  91 SE5       29.91R
*PORT LAVACA   FOG       74  71  91 CALM      29.88R VSB<1/4
*INGLESIDE     MOCLDY   N/A N/A N/A CALM      29.89R VSB 1
CORPUS CHRISTI FOG       72  72 100 CALM      29.89R VSB 1/2
CORPUS NAS     PTCLDY    78  76  93 S3        29.88S
*ROBSTOWN      FOG       73  73 100 E3        29.90R VSB 1/4
ALICE          FOG       73  73 100 CALM      29.89R VSB<1/4
KINGSVILLE NAS FOG       70  70 100 CALM      29.89S VSB 1/4
COTULLA        MOCLDY    76  72  87 CALM      29.91R
LAREDO         CLOUDY    77  72  84 SE10      29.90R
$$

TXZ248>255-231400-
DEEP SOUTH TEXAS

CITY           SKY/WX    TMP DP  RH WIND       PRES   REMARKS
BROWNSVILLE    CLEAR     74  73  97 SE3       29.87S
PORT ISABEL    CLEAR     75  74  96 SE5       29.87S
HARLINGEN      CLEAR     71  71 100 SE5       29.87S
*HEBBRONVILLE  CLOUDY    74  72  92 S5        29.92R
MCALLEN        CLOUDY    78  72  81 SE6       29.89R
*WESLACO       CLOUDY    74  72  94 CALM      29.87R
FALFURRIAS     CLOUDY    69  69 100 CALM      29.89R VSB 1/4
EDINBURG       CLOUDY    60  59  97 CALM      29.89R FOG
*ZAPATA        CLOUDY    78  75  90 S5        29.90S
$$

TXZ213>215-236>238-242>244-246-247-251-254-255-231400-
CMAN STATIONS

STATION/POSITION TIME  TEMP    WIND        PRES    WAVE
                       AIR SEA DIR/SP/G            HT/PER
                 (UTC) (F)     (DEG/KT/KT) (MB)    (FT/S)
SEA RIM ST PARK  1300   76      50/  5/  6 1014.0
NORTH JETTY/GLS  1224   83 78  120/  6/  7 1012.2
EAGLE POINT      1224   78 80  120/  6/  8 1012.7
MORGANS POINT    1224   77 80   90/  6/  7 1013.4
PORT O`CONNOR    1224   78 83  140/  5/  6 1011.7
PORT ARANSAS     1300   78 80  140/  6/  6 1012.1
MALAQUITE BEACH  1230   79     130/  7/  8   N/A
BAFFIN BAY       1230   79 83  130/  4/  6 1011.4
PORT ISABEL      1230   79 82  130/  3/  5 1013.4
$$




USA.gov is the U.S. government's official web portal to all federal, state and local government web resources and services.